MARCH LSZR-LFTZ

Flight info

Callsign MARCH
Flight time 0h 53m
Altitude 45000
Route AMIKI DCT KLO DCT ALETO DCT NITAM DCT PERUS
Aircraft C750/M-SBDE3FGHRWXY/S

Departure

Time 2026-04-20 18:53
Airport Sankt Gallen Altenrhein Airport (LSZR)

Arrival

Time 2026-04-20 19:46
Airport La Môle Airport (LFTZ)
Time Latitude Longitude Altitude Speed Heading
2026-04-20 18:26 47.48727 9.55210 1311 ft 0 kts
2026-04-20 18:42 47.48733 9.55210 1311 ft 3 kts 357°
2026-04-20 18:42 47.48737 9.55177 1311 ft 3 kts 209°
2026-04-20 18:42 47.48718 9.55158 1312 ft 4 kts 231°
2026-04-20 18:43 47.48688 9.55185 1312 ft 8 kts 114°
2026-04-20 18:43 47.48665 9.55260 1311 ft 7 kts 115°
2026-04-20 18:43 47.48661 9.55273 1311 ft 0 kts 115°
2026-04-20 18:50 47.48659 9.55279 1311 ft 3 kts 115°
2026-04-20 18:50 47.48637 9.55326 1312 ft 7 kts 156°
2026-04-20 18:50 47.48598 9.55329 1314 ft 3 kts 163°
2026-04-20 18:50 47.48576 9.55383 1315 ft 11 kts 98°
2026-04-20 18:51 47.48556 9.55585 1314 ft 29 kts 99°
2026-04-20 18:51 47.48517 9.55963 1315 ft 42 kts 97°
2026-04-20 18:51 47.48471 9.56380 1308 ft 39 kts 95°
2026-04-20 18:51 47.48435 9.56746 1307 ft 34 kts 97°
2026-04-20 18:52 47.48413 9.57000 1312 ft 19 kts 75°
2026-04-20 18:52 47.48404 9.57047 1313 ft 4 kts 251°
2026-04-20 18:52 47.48415 9.56928 1309 ft 40 kts 279°
2026-04-20 18:52 47.48518 9.55930 1353 ft 137 kts 279°
2026-04-20 18:53 47.48681 9.54588 2160 ft 134 kts 282°
2026-04-20 18:53 47.48870 9.53110 2733 ft 159 kts 285°
2026-04-20 18:53 47.49073 9.51366 3174 ft 186 kts 283°
2026-04-20 18:53 47.49293 9.49348 3629 ft 211 kts 282°
2026-04-20 18:54 47.49540 9.47087 4171 ft 230 kts 282°
2026-04-20 18:54 47.49793 9.44765 5041 ft 230 kts 281°
2026-04-20 18:54 47.50054 9.42407 5818 ft 235 kts 279°
2026-04-20 18:54 47.50332 9.39893 6435 ft 261 kts 279°
2026-04-20 18:55 47.50634 9.37149 7301 ft 272 kts 279°
2026-04-20 18:55 47.50930 9.34449 8767 ft 263 kts 279°
2026-04-20 18:55 47.51383 9.31806 9789 ft 272 kts 294°
2026-04-20 18:55 47.52497 9.29530 10640 ft 280 kts 307°
2026-04-20 18:56 47.53769 9.27190 10950 ft 305 kts 307°
2026-04-20 18:56 47.55062 9.24544 11067 ft 330 kts 297°
2026-04-20 18:56 47.55710 9.21288 11861 ft 329 kts 280°
2026-04-20 18:56 47.56059 9.17937 12783 ft 330 kts 278°
2026-04-20 18:57 47.56360 9.14574 13634 ft 332 kts 278°
2026-04-20 18:57 47.56673 9.11178 14415 ft 333 kts 278°
2026-04-20 18:57 47.57006 9.07771 15180 ft 334 kts 279°
2026-04-20 18:57 47.57139 9.04326 15861 ft 339 kts 269°
2026-04-20 18:58 47.56820 9.00862 16610 ft 343 kts 261°
2026-04-20 18:58 47.56012 8.97507 17379 ft 350 kts 249°
2026-04-20 18:58 47.54696 8.94413 18157 ft 361 kts 237°
2026-04-20 18:58 47.52921 8.91797 18863 ft 373 kts 225°
2026-04-20 18:59 47.50735 8.89638 19533 ft 381 kts 219°
2026-04-20 18:59 47.48481 8.87545 20257 ft 383 kts 220°
2026-04-20 18:59 47.46218 8.85429 20988 ft 387 kts 220°
2026-04-20 18:59 47.43933 8.83296 21617 ft 391 kts 220°
2026-04-20 19:00 47.41614 8.81143 22304 ft 395 kts 220°
2026-04-20 19:00 47.39275 8.78974 23024 ft 399 kts 220°
2026-04-20 19:00 47.36915 8.76784 23701 ft 402 kts 221°
2026-04-20 19:00 47.34538 8.74577 24256 ft 406 kts 221°
2026-04-20 19:01 47.32923 8.73077 24623 ft 408 kts 221°
2026-04-20 19:01 47.30498 8.70832 25162 ft 413 kts 220°
2026-04-20 19:01 47.28058 8.68580 25711 ft 416 kts 220°
2026-04-20 19:01 47.25596 8.66308 26230 ft 420 kts 220°
2026-04-20 19:02 47.23106 8.64006 26764 ft 424 kts 220°
2026-04-20 19:02 47.20637 8.61730 27343 ft 427 kts 220°
2026-04-20 19:02 47.18073 8.59373 27927 ft 431 kts 220°
2026-04-20 19:02 47.15555 8.57059 28490 ft 434 kts 220°
2026-04-20 19:03 47.12991 8.54704 29054 ft 437 kts 220°
2026-04-20 19:03 47.10393 8.52321 29605 ft 441 kts 220°
2026-04-20 19:03 47.07778 8.49926 30139 ft 445 kts 220°
2026-04-20 19:03 47.05145 8.47518 30598 ft 448 kts 220°
2026-04-20 19:04 47.02492 8.45094 31049 ft 451 kts 219°
2026-04-20 19:04 46.99829 8.42666 31649 ft 449 kts 219°
2026-04-20 19:04 46.97183 8.40257 32288 ft 448 kts 219°
2026-04-20 19:04 46.94498 8.37809 32912 ft 448 kts 219°
2026-04-20 19:05 46.91851 8.35398 33512 ft 449 kts 219°
2026-04-20 19:05 46.89225 8.33013 34123 ft 448 kts 219°
2026-04-20 19:05 46.86580 8.30616 34714 ft 446 kts 218°
2026-04-20 19:05 46.83945 8.28238 35300 ft 444 kts 218°
2026-04-20 19:06 46.81315 8.25858 35762 ft 445 kts 218°
2026-04-20 19:06 46.78678 8.23466 36271 ft 447 kts 218°
2026-04-20 19:06 46.76035 8.21077 36813 ft 448 kts 217°
2026-04-20 19:06 46.73382 8.18690 37339 ft 449 kts 217°
2026-04-20 19:07 46.70724 8.16297 37869 ft 449 kts 217°
2026-04-20 19:07 46.68067 8.13903 38358 ft 449 kts 217°
2026-04-20 19:07 46.65414 8.11517 38892 ft 449 kts 217°
2026-04-20 19:07 46.62755 8.09131 39387 ft 449 kts 217°
2026-04-20 19:08 46.60087 8.06738 39831 ft 450 kts 217°
2026-04-20 19:08 46.54748 8.01958 40762 ft 451 kts 217°
2026-04-20 19:08 46.52072 7.99568 41219 ft 451 kts 217°
2026-04-20 19:09 46.49395 7.97178 41743 ft 451 kts 216°
2026-04-20 19:09 46.46717 7.94790 42166 ft 452 kts 216°
2026-04-20 19:09 46.44074 7.92436 42683 ft 452 kts 216°
2026-04-20 19:09 46.41394 7.90052 43132 ft 453 kts 216°
2026-04-20 19:10 46.38672 7.87756 43535 ft 456 kts 211°
2026-04-20 19:10 46.35740 7.85951 43943 ft 459 kts 206°
2026-04-20 19:10 46.32756 7.84294 44411 ft 459 kts 205°
2026-04-20 19:10 46.29782 7.82612 44805 ft 457 kts 206°
2026-04-20 19:11 46.26830 7.80890 45004 ft 461 kts 206°
2026-04-20 19:11 46.20744 7.77395 45000 ft 479 kts 205°
2026-04-20 19:12 46.14446 7.73815 45004 ft 493 kts 206°
2026-04-20 19:12 46.07999 7.70133 44986 ft 500 kts 205°
2026-04-20 19:13 46.01516 7.66461 44982 ft 502 kts 205°
2026-04-20 19:13 45.95030 7.62781 44977 ft 502 kts 205°
2026-04-20 19:14 45.88538 7.59115 44993 ft 502 kts 205°
2026-04-20 19:14 45.82048 7.55455 44967 ft 500 kts 205°
2026-04-20 19:15 45.75555 7.51806 44964 ft 501 kts 205°
2026-04-20 19:15 45.69064 7.48163 44960 ft 500 kts 205°
2026-04-20 19:16 45.62592 7.44541 44947 ft 501 kts 205°
2026-04-20 19:16 45.56104 7.40922 44942 ft 501 kts 205°
2026-04-20 19:17 45.49622 7.37311 44928 ft 498 kts 205°
2026-04-20 19:17 45.43133 7.33708 44945 ft 499 kts 205°
2026-04-20 19:18 45.36688 7.30137 44959 ft 500 kts 205°
2026-04-20 19:18 45.30196 7.26550 44985 ft 502 kts 205°
2026-04-20 19:19 45.23734 7.22991 44872 ft 491 kts 205°
2026-04-20 19:19 45.20580 7.21257 44138 ft 482 kts 206°
2026-04-20 19:19 45.17495 7.19559 43515 ft 470 kts 206°
2026-04-20 19:19 45.14479 7.17903 42888 ft 459 kts 206°
2026-04-20 19:20 45.11575 7.16171 42286 ft 446 kts 212°
2026-04-20 19:20 45.08969 7.13909 41713 ft 435 kts 221°
2026-04-20 19:20 45.06618 7.11271 41155 ft 431 kts 224°
2026-04-20 19:20 45.04279 7.08606 40575 ft 433 kts 224°
2026-04-20 19:21 45.01908 7.05951 39996 ft 435 kts 223°
2026-04-20 19:21 44.99534 7.03299 39369 ft 435 kts 224°
2026-04-20 19:21 44.97172 7.00636 38777 ft 434 kts 224°
2026-04-20 19:21 44.94821 6.97983 38165 ft 431 kts 224°
2026-04-20 19:22 44.92482 6.95360 37607 ft 430 kts 223°
2026-04-20 19:22 44.90124 6.92722 37024 ft 433 kts 224°
2026-04-20 19:22 44.87765 6.90082 36451 ft 432 kts 224°
2026-04-20 19:22 44.85408 6.87444 35875 ft 433 kts 224°
2026-04-20 19:23 44.83049 6.84807 35322 ft 433 kts 224°
2026-04-20 19:23 44.80678 6.82161 34738 ft 436 kts 224°
2026-04-20 19:23 44.78301 6.79512 34153 ft 436 kts 224°
2026-04-20 19:23 44.75927 6.76869 33568 ft 436 kts 224°
2026-04-20 19:24 44.73545 6.74218 32998 ft 437 kts 224°
2026-04-20 19:24 44.71146 6.71550 32422 ft 440 kts 224°
2026-04-20 19:24 44.68740 6.68880 31833 ft 441 kts 224°
2026-04-20 19:24 44.66325 6.66204 31252 ft 444 kts 224°
2026-04-20 19:25 44.63895 6.63513 30667 ft 447 kts 224°
2026-04-20 19:25 44.61452 6.60809 30073 ft 445 kts 223°
2026-04-20 19:25 44.59033 6.58140 29440 ft 440 kts 223°
2026-04-20 19:25 44.56633 6.55489 28862 ft 437 kts 224°
2026-04-20 19:26 44.54257 6.52861 28289 ft 433 kts 224°
2026-04-20 19:26 44.51896 6.50256 27719 ft 431 kts 224°
2026-04-20 19:26 44.49545 6.47676 27148 ft 428 kts 223°
2026-04-20 19:26 44.47207 6.45115 26592 ft 425 kts 224°
2026-04-20 19:27 44.44892 6.42571 26027 ft 422 kts 224°
2026-04-20 19:27 44.42590 6.40039 25471 ft 419 kts 224°
2026-04-20 19:27 44.40326 6.37558 24935 ft 417 kts 223°
2026-04-20 19:27 44.38046 6.35068 24385 ft 415 kts 223°
2026-04-20 19:28 44.35783 6.32594 23838 ft 412 kts 223°
2026-04-20 19:28 44.33537 6.30136 23254 ft 409 kts 223°
2026-04-20 19:28 44.31298 6.27690 22715 ft 407 kts 223°
2026-04-20 19:28 44.29081 6.25276 22185 ft 404 kts 223°
2026-04-20 19:29 44.26873 6.22876 21650 ft 400 kts 223°
2026-04-20 19:29 44.24686 6.20493 21106 ft 398 kts 223°
2026-04-20 19:29 44.22507 6.18118 20590 ft 396 kts 223°
2026-04-20 19:29 44.20342 6.15768 20073 ft 393 kts 223°
2026-04-20 19:30 44.18195 6.13443 19565 ft 391 kts 223°
2026-04-20 19:30 44.15876 6.11454 19010 ft 397 kts 209°
2026-04-20 19:30 44.13193 6.10435 18681 ft 405 kts 193°
2026-04-20 19:30 44.10361 6.10282 18388 ft 409 kts 185°
2026-04-20 19:31 44.07519 6.10300 18042 ft 407 kts 184°
2026-04-20 19:31 44.04706 6.10312 17646 ft 401 kts 184°
2026-04-20 19:31 44.01923 6.10287 17298 ft 399 kts 185°
2026-04-20 19:31 43.99153 6.10261 16933 ft 398 kts 184°
2026-04-20 19:32 43.96394 6.10257 16595 ft 395 kts 184°
2026-04-20 19:32 43.93660 6.10256 16244 ft 392 kts 184°
2026-04-20 19:32 43.90936 6.10242 15899 ft 390 kts 184°
2026-04-20 19:32 43.88235 6.10227 15555 ft 388 kts 184°
2026-04-20 19:33 43.85541 6.10217 15202 ft 384 kts 184°
2026-04-20 19:33 43.82874 6.10209 14878 ft 383 kts 184°
2026-04-20 19:33 43.80212 6.10198 14541 ft 381 kts 184°
2026-04-20 19:33 43.77567 6.10188 14206 ft 379 kts 184°
2026-04-20 19:34 43.74935 6.10177 13874 ft 377 kts 184°
2026-04-20 19:34 43.72315 6.10167 13525 ft 376 kts 184°
2026-04-20 19:34 43.69708 6.10158 13187 ft 373 kts 184°
2026-04-20 19:34 43.67155 6.10150 12852 ft 354 kts 184°
2026-04-20 19:35 43.64789 6.10145 12543 ft 327 kts 184°
2026-04-20 19:35 43.62583 6.10134 12265 ft 310 kts 185°
2026-04-20 19:35 43.60443 6.10117 11996 ft 306 kts 185°
2026-04-20 19:35 43.58323 6.10244 11716 ft 307 kts 179°
2026-04-20 19:36 43.56193 6.10453 11333 ft 306 kts 180°
2026-04-20 19:36 43.54077 6.10619 10937 ft 303 kts 181°
2026-04-20 19:36 43.51984 6.10801 10553 ft 300 kts 180°
2026-04-20 19:36 43.49949 6.10996 10169 ft 299 kts 180°
2026-04-20 19:37 43.47881 6.11192 9766 ft 296 kts 180°
2026-04-20 19:37 43.45843 6.11551 9311 ft 299 kts 167°
2026-04-20 19:37 43.44030 6.12983 8921 ft 304 kts 141°
2026-04-20 19:37 43.42752 6.15277 8583 ft 303 kts 122°
2026-04-20 19:38 43.41679 6.17774 8264 ft 304 kts 121°
2026-04-20 19:38 43.40607 6.20275 7864 ft 302 kts 121°
2026-04-20 19:38 43.39528 6.22739 7456 ft 300 kts 122°
2026-04-20 19:38 43.38448 6.25174 7067 ft 296 kts 122°
2026-04-20 19:39 43.37356 6.27572 6687 ft 295 kts 122°
2026-04-20 19:39 43.36265 6.29948 6299 ft 293 kts 122°
2026-04-20 19:39 43.35196 6.32264 5947 ft 281 kts 123°
2026-04-20 19:39 43.34133 6.34564 5696 ft 288 kts 123°
2026-04-20 19:40 43.33238 6.36902 5374 ft 273 kts 106°
2026-04-20 19:40 43.32961 6.39391 5079 ft 250 kts 93°
2026-04-20 19:40 43.32826 6.41658 4828 ft 233 kts 92°
2026-04-20 19:40 43.32691 6.43801 4542 ft 219 kts 92°
2026-04-20 19:41 43.32557 6.45849 4223 ft 213 kts 92°
2026-04-20 19:41 43.32424 6.47864 3868 ft 210 kts 93°
2026-04-20 19:41 43.32304 6.49837 3478 ft 208 kts 93°
2026-04-20 19:41 43.32193 6.51819 3007 ft 207 kts 94°
2026-04-20 19:42 43.32000 6.53705 2913 ft 191 kts 112°
2026-04-20 19:42 43.31099 6.54937 2890 ft 180 kts 153°
2026-04-20 19:42 43.30017 6.55780 3015 ft 180 kts 153°
2026-04-20 19:42 43.28925 6.56682 2975 ft 182 kts 153°
2026-04-20 19:43 43.27838 6.57581 2977 ft 183 kts 153°
2026-04-20 19:43 43.26739 6.58463 2964 ft 182 kts 159°
2026-04-20 19:43 43.25475 6.58721 2527 ft 190 kts 192°
2026-04-20 19:43 43.24407 6.57828 1929 ft 177 kts 238°
2026-04-20 19:44 43.23985 6.56372 1860 ft 156 kts 254°
2026-04-20 19:44 43.23651 6.55010 1691 ft 151 kts 250°
2026-04-20 19:44 43.23182 6.53761 1307 ft 141 kts 243°
2026-04-20 19:44 43.22748 6.52585 955 ft 135 kts 247°
2026-04-20 19:45 43.22346 6.51465 686 ft 132 kts 237°
2026-04-20 19:45 43.21709 6.50573 522 ft 127 kts 227°
2026-04-20 19:45 43.21144 6.49670 275 ft 125 kts 236°
2026-04-20 19:45 43.20721 6.48647 74 ft 120 kts 243°
2026-04-20 19:46 43.20422 6.47885 71 ft 56 kts 242°
2026-04-20 19:46 43.20300 6.47568 67 ft 26 kts 241°
2026-04-20 19:46 43.20327 6.47511 71 ft 7 kts 18°
2026-04-20 19:46 43.20353 6.47554 71 ft 6 kts 64°
2026-04-20 19:47 43.20369 6.47604 67 ft 6 kts 66°
2026-04-20 19:47 43.20379 6.47652 70 ft 7 kts 78°
2026-04-20 19:47 43.20397 6.47709 71 ft 5 kts 57°
2026-04-20 19:47 43.20418 6.47704 73 ft 2 kts 303°
2026-04-20 19:48 43.20411 6.47694 69 ft 1 kts 183°
2026-04-20 19:48 43.20410 6.47693 69 ft 0 kts 188°